Home > Weather > Grudziądz > Past weeks

Flag for Poland Past Weather in Grudziądz, Poland — Yesterday and Last 2 Weeks

Now
74 °F

Passing clouds.


Feels Like: 77 °F
Forecast: 61 / 86 °F
Wind: 5 mph from South

Location: Torun

Current Time: Aug 26, 2016 at 10:47:28 AM

Latest Report: Aug 26, 2016 at 10:00 AM


Visibility: 22 mi

Pressure: 30.20 "Hg

Humidity: 47%

Dew Point: 53 °F

Location of GrudziądzLocation

Past Weather in Grudziądz — Graph

°F

Grudziądz Temperature Yesterday

Maximum temperature yesterday: 79 °F (at 4:00 PM)
Minimum temperature yesterday: 50 °F (at 5:00 AM)
Average temperature yesterday: 66 °F

High & Low Weather Summary for the Past Weeks

 TemperatureHumidityPressure
High83 °F (Aug 20, 4:00 PM)100% (Aug 23, 2:00 AM)30.36 "Hg (Aug 23, 2:00 AM)
Low42 °F (Aug 12, 4:00 AM)31% (Aug 20, 4:00 PM)29.79 "Hg (Aug 18, 5:00 AM)
Average63 °F73%30.09 "Hg
* Reported Aug 11 9:00 AM — Aug 26 9:00 AM, Grudziądz, Weather by CustomWeather, © 2016

Note: Actual official high and low records may vary slightly from our data, if they occured in-between our weather recording intervals... More about our weather records

Advertising

Grudziądz Weather History for the Previous 24 Hours

Scroll right to see more
 ConditionsComfort  
Time TempWeatherWind HumidityBarometerVisibility
9:00 AM
Fri, Aug 26
70 °FPassing clouds.3 mph58%30.21 "Hg22 mi
8:00 AM64 °FPassing clouds.2 mph70%30.21 "Hg17 mi
7:00 AM61 °FSunny.2 mph78%30.22 "Hg18 mi
6:00 AM58 °FSunny.1 mph86%30.22 "Hg14 mi
5:00 AM59 °FClear.2 mph84%30.23 "Hg14 mi
4:00 AM60 °FClear.2 mph81%30.23 "Hg13 mi
3:00 AM60 °FClear.2 mph82%30.24 "Hg12 mi
2:00 AM61 °FClear.1 mph80%30.24 "Hg22 mi
1:00 AM62 °FClear.2 mph77%30.24 "Hg25 mi
12:00 AM64 °FClear.2 mph73%30.24 "Hg22 mi
11:00 PM
Thu, Aug 25
65 °FClear.1 mph69%30.24 "Hg28 mi
10:00 PM67 °FClear.1 mph65%30.24 "Hg31 mi
9:00 PM66 °FPassing clouds.1 mph68%30.24 "Hg28 mi
8:00 PM71 °FClear.1 mph56%30.23 "Hg28 mi
7:00 PM76 °FSunny.2 mph44%30.23 "Hg31 mi
6:00 PM78 °FSunny.3 mph42%30.24 "Hg28 mi
5:00 PM79 °FPassing clouds.3 mph40%30.25 "Hg28 mi
4:00 PM79 °FPassing clouds.2 mph39%30.27 "Hg25 mi
3:00 PM78 °FPassing clouds.3 mph43%30.27 "Hg22 mi
2:00 PM77 °FPassing clouds.2 mph46%30.28 "Hg19 mi
1:00 PM76 °FPassing clouds.2 mph50%30.30 "Hg22 mi
12:00 PM75 °FPassing clouds.2 mph52%30.32 "Hg22 mi
11:00 AM74 °FPassing clouds.2 mph56%30.32 "Hg22 mi
10:00 AM70 °FPassing clouds.2 mph66%30.32 "Hg22 mi
Weather by CustomWeather, © 2016

See weather overviewHow to use our weather pages